FLOCK 4G 14

导读

FLOCK 4G 14卫星由美国发射升空,发射时间为2025年1月14日,属于FLOCK 4G卫星星座系列。该星座由多颗小型卫星组成,主要用于对地观测,可提供高分辨率遥感影像,在环境监测、农业估产、城市规划、灾害评估等领域发挥作用,进一步补充了地球观测数据资源。

基本信息
目录编号:
62667
目录名称:
FLOCK 4G 14
国际标识:
2025-009BL
轨道中心:
EARTH
卫星名称:
FLOCK 4G 14
卫星全名:
FLOCK 4G 14
卫星状态:
在轨 (已飞行598 天)
发射日期:
2025-01-14 UTC
国别 :
美国 (US)
星等 :
--
轨道信息
数据来源 国际轨道数据
星历时间: 2026-09-03T12:20:56+0800
1天前
查看轨道信息
半长轴: 6852.039km
偏心率: 0.0005187
轨道倾角: 97.398°
近地点辐角 55.462°
升交点赤经 327.686°
平近点角 304.711°
近地点: 470.347km
远地点: 477.457km
周期: 94.078分钟
每日圈数: 15.306401
详细信息
使用方式:
暂无
2D轨道图
3D轨道图
轨道高度分析图
轨道倾角分析图
轨道综合分析图
查看轨道综合分析图
交会数据列表
事件ID 空间交会对象 最接近时刻(TCA) 交会距离 交会风险概率(CRP) 交会风险指数(CRI) 操作
CDM_260905-090405-482806-266721
2026-09-05T
09:04:34+0000
1.780 km
极远距离
3.667558E-6 低风险 0.46
CDM_260904-141105-916806-266721
2026-09-04T
14:11:41+0000
2.230 km
极远距离
2.134228E-6 低风险 0.42
CDM_260831-015406-266706-746022
2026-08-31T
01:54:07+0000
2.241 km
极远距离
1.440445E-6 低风险 0.38
CDM_260905-230706-185606-266721
2026-09-05T
23:07:51+0000
2.397 km
极远距离
1.289874E-6 低风险 0.37
CDM_260905-082805-305206-266721
2026-09-05T
08:28:57+0000
2.941 km
极远距离
1.160082E-6 低风险 0.36
CDM_260831-033205-791406-266722
2026-08-31T
03:32:10+0000
2.781 km
极远距离
1.094197E-6 低风险 0.36